Williamtown Air Force Base, Australia

7:32 PM AEST on September 29, 2016 (GMT +1000)
Williamtown Military

Weather History for YWLM - March, 2014

Change the Weather History Date:

Wednesday, March 5, 2014

  Actual Average Record
Temperature  
Mean Temperature 71 °F -  
Max Temperature 86 °F - - ()
Min Temperature 56 °F - - ()
Cooling Degree Days 6    
Growing Degree Days 21 (Base 50)    
Moisture  
Dew Point 61 °F    
Average Humidity 79    
Maximum Humidity 100    
Minimum Humidity 29    
Precipitation  
Precipitation 0.04 in - - ()
Sea Level Pressure  
Sea Level Pressure 30.04 in    
Wind  
Wind Speed 3 mph ()    
Max Wind Speed 18 mph    
Max Gust Speed 33 mph    
Visibility 6.1 miles    
Events Fog , Rain , Thunderstorm    
T = Trace of Precipitation, MM = Missing Value Source: Averaged Metar Reports

Daily Weather History Graph

Daily Weather History Graph

Search for Another Location

Airport or City:

Trip Planner

Search our weather history database for the weather conditions in past years. The results will help you decide how hot, cold, wet, or windy it might be!

Date:

Astronomy

Mar. 05, 2014 Rise Set
Actual Time 6:44 AM AEDT 7:23 PM AEDT
Civil Twilight 6:19 AM AEDT 7:48 PM AEDT
Nautical Twilight 5:49 AM AEDT 8:18 PM AEDT
Astronomical Twilight 5:19 AM AEDT 8:47 PM AEDT
Moon 10:35 AM AEDT (3/5) 9:49 PM AEDT (3/5)
Length of Visible Light 13h 29m
Length of Day
12h 39m
Waxing Crescent, 17% of the Moon is Illuminated
Mar 5
Waxing Crescent
Mar 9
First Quarter
Mar 17
Full
Mar 24
Last Quarter
Mar 31
New

Hourly Weather History & Observations

Time (AEDT) Temp. Heat Index Dew Point Humidity Pressure Visibility Wind Dir Wind Speed Gust Speed Precip Events Conditions
12:00 AM 64 °F - 62 °F 90% 30.15 in - Calm Calm - -  
12:00 AM 64.4 °F - 62.6 °F 94% 30.15 in 6.2 mi Calm Calm - N/A   Unknown
12:30 AM 62.6 °F - 62.6 °F 100% 30.12 in 6.2 mi Calm Calm - N/A   Unknown
1:00 AM 62.6 °F - 60.8 °F 94% 30.12 in 6.2 mi Calm Calm - N/A   Unknown
1:30 AM 62.6 °F - 60.8 °F 94% 30.12 in 6.2 mi Calm Calm - N/A   Unknown
2:00 AM 61 °F - 59 °F 92% 30.13 in - Calm Calm - -  
2:00 AM 60.8 °F - 59.0 °F 94% 30.12 in 6.2 mi Calm Calm - N/A   Unknown
2:30 AM 60.8 °F - 59.0 °F 94% 30.09 in 6.2 mi Calm Calm - N/A   Unknown
3:00 AM 59 °F - 58 °F 96% 30.11 in - Calm Calm - -  
3:00 AM 59.0 °F - 59.0 °F 100% 30.09 in 6.2 mi Calm Calm - N/A   Unknown
3:30 AM 59.0 °F - 59.0 °F 100% 30.09 in 6.2 mi Calm Calm - N/A   Unknown
4:00 AM 59.0 °F - 57.2 °F 94% 30.06 in 6.2 mi Calm Calm - N/A   Unknown
4:30 AM 57.2 °F - 55.4 °F 94% 30.06 in 6.2 mi Calm Calm - N/A   Unknown
5:00 AM 58 °F - 57 °F 94% 30.09 in - Calm Calm - -  
5:00 AM 57.2 °F - 57.2 °F 100% 30.06 in 6.2 mi Calm Calm - N/A   Unknown
5:30 AM 57.2 °F - 57.2 °F 100% 30.09 in 6.2 mi Calm Calm - N/A   Unknown
6:00 AM 57 °F - 56 °F 97% 30.10 in 19 mi Calm Calm - - Fog Patches of Fog
6:00 AM 57.2 °F - 57.2 °F 100% 30.09 in 6.2 mi Calm Calm - N/A Fog Partly Cloudy
6:30 AM 57.2 °F - 57.2 °F 100% 30.09 in 6.2 mi Calm Calm - N/A Fog Partly Cloudy
7:00 AM 57.2 °F - 57.2 °F 100% 30.09 in 6.2 mi Calm Calm - N/A Fog Scattered Clouds
7:02 AM 57.2 °F - 57.2 °F 100% 30.09 in 2.5 mi Calm Calm - N/A   Mostly Cloudy
7:07 AM 57.2 °F - 57.2 °F 100% 30.09 in 0.6 mi Calm Calm - N/A   Mostly Cloudy
7:30 AM 59.0 °F - 59.0 °F 100% 30.09 in 6.2 mi Calm Calm - N/A Fog Mostly Cloudy
7:39 AM 60.8 °F - 60.8 °F 100% 30.09 in 2.5 mi SE 1.2 mph - N/A Fog Mostly Cloudy
8:00 AM 61 °F - 61 °F 99% 30.11 in - NW 5.8 mph - -  
8:00 AM 60.8 °F - 60.8 °F 100% 30.09 in 0.2 mi NW 5.8 mph - N/A Fog Fog
8:30 AM 62.6 °F - 62.6 °F 100% 30.09 in 0.4 mi WNW 8.1 mph - N/A Fog Fog
8:50 AM 62.6 °F - 62.6 °F 100% 30.09 in 2.5 mi NW 6.9 mph - N/A Fog Fog
9:00 AM 64 °F - 63 °F 97% 30.11 in 5 mi NW 5.8 mph - -   Mist
9:00 AM 64.4 °F - 62.6 °F 94% 30.09 in 5.0 mi NW 5.8 mph - N/A   Mostly Cloudy
9:30 AM 66.2 °F - 62.6 °F 88% 30.09 in 6.2 mi NW 5.8 mph - N/A   Mostly Cloudy
10:00 AM 68.0 °F - 64.4 °F 88% 30.09 in 6.2 mi NNW 8.1 mph - N/A   Scattered Clouds
10:30 AM 69.8 °F - 64.4 °F 83% 30.09 in 6.2 mi NNW 6.9 mph - N/A   Scattered Clouds
11:00 AM 73 °F - 64 °F 67% 30.09 in - NNW 6.9 mph - -  
11:00 AM 73.4 °F - 64.4 °F 73% 30.06 in 6.2 mi NNW 6.9 mph - N/A   Partly Cloudy
11:30 AM 75.2 °F - 62.6 °F 65% 30.06 in 6.2 mi North 6.9 mph - N/A   Partly Cloudy
12:00 PM 77 °F - 62 °F 51% 30.06 in 25 mi NW 5.8 mph - -   Partly Cloudy
12:00 PM 77.0 °F - 62.6 °F 61% 30.04 in 6.2 mi NW 5.8 mph - N/A   Partly Cloudy
12:30 PM 78.8 °F - 62.6 °F 57% 30.04 in 6.2 mi NNW 6.9 mph - N/A   Partly Cloudy
1:00 PM 80.6 °F 81.5 °F 60.8 °F 51% 30.04 in - NW 6.9 mph - N/A   Clear
1:30 PM 82.4 °F 82.5 °F 59.0 °F 45% 30.01 in - NW 8.1 mph - N/A   Clear
2:00 PM 83 °F - 58 °F 32% 30.01 in - NNW 8.1 mph - -  
2:00 PM 84.2 °F 83.8 °F 59.0 °F 42% 30.01 in 6.2 mi NNW 8.1 mph - N/A   Partly Cloudy
2:30 PM 84.2 °F 83.5 °F 57.2 °F 40% 29.98 in 6.2 mi WSW 4.6 mph - N/A   Partly Cloudy
3:00 PM 85 °F - 58 °F 29% 29.97 in 19 mi NNW 4.6 mph - -   Haze
3:00 PM 84.2 °F 83.5 °F 57.2 °F 40% 29.95 in 6.2 mi NNW 4.6 mph - N/A   Partly Cloudy
3:30 PM 84.2 °F 83.5 °F 57.2 °F 40% 29.95 in 6.2 mi NNW 6.9 mph - N/A   Partly Cloudy
4:00 PM 86.0 °F 84.9 °F 57.2 °F 37% 29.95 in 6.2 mi West 5.8 mph - N/A   Partly Cloudy
4:30 PM 84.2 °F 85.0 °F 62.6 °F 48% 29.92 in 6.2 mi East 11.5 mph - N/A   Partly Cloudy
5:00 PM 83 °F - 63 °F 40% 29.94 in - ENE 11.5 mph - -  
5:00 PM 84.2 °F 85.0 °F 62.6 °F 48% 29.92 in 6.2 mi ENE 11.5 mph - N/A   Partly Cloudy
5:30 PM 80.6 °F 81.5 °F 60.8 °F 51% 29.95 in 6.2 mi ENE 10.4 mph - N/A   Partly Cloudy
6:00 PM 79 °F - 64 °F 51% 29.96 in - NE 10.4 mph - -  
6:00 PM 78.8 °F - 64.4 °F 61% 29.95 in 6.2 mi NE 10.4 mph - N/A   Partly Cloudy
6:30 PM 77.0 °F - 64.4 °F 65% 29.95 in 6.2 mi ENE 9.2 mph - N/A   Partly Cloudy
6:49 PM 75.2 °F - 62.6 °F 65% 29.98 in 6.2 mi SW 17.3 mph 33.4 mph N/A Thunderstorm Scattered Clouds
7:00 PM 73.4 °F - 60.8 °F 65% 29.98 in 6.2 mi WSW 18.4 mph - N/A Thunderstorm Scattered Clouds
7:30 PM 71.6 °F - 62.6 °F 73% 29.98 in 6.2 mi WNW 8.1 mph - N/A Rain , Thunderstorm Light Thunderstorms and Rain
8:00 PM 68 °F - 65 °F 89% 30.00 in - NW 10.4 mph - -  
8:00 PM 68.0 °F - 66.2 °F 94% 29.98 in 6.2 mi NW 10.4 mph - N/A Rain Light Rain Showers
8:30 PM 68.0 °F - 66.2 °F 94% 29.98 in 6.2 mi NNE 9.2 mph - N/A Rain Light Rain Showers
9:00 PM 69 °F - 66 °F 88% 30.01 in - North 5.8 mph - -  
9:00 PM 68.0 °F - 66.2 °F 94% 30.01 in 6.2 mi North 5.8 mph - N/A Rain Light Rain Showers
9:30 PM 69.8 °F - 66.2 °F 88% 30.01 in 6.2 mi NNW 5.8 mph - N/A   Scattered Clouds
10:00 PM 68.0 °F - 66.2 °F 94% 30.04 in 6.2 mi West 1.2 mph - N/A   Mostly Cloudy
10:30 PM 68.0 °F - 66.2 °F 94% 30.04 in 6.2 mi NNW 4.6 mph - N/A   Unknown
11:00 PM 69 °F - 66 °F 86% 30.03 in - North 5.8 mph - -  
11:00 PM 69.8 °F - 66.2 °F 88% 30.01 in 6.2 mi North 5.8 mph - N/A   Unknown
11:30 PM 68.0 °F - 66.2 °F 94% 30.01 in 6.2 mi NNW 5.8 mph - N/A   Unknown